Weather History for Hagerstown, MD

Change the Weather History Date:

Thursday, January 31, 2013

  Actual Average Record
Temperature  
Mean Temperature 43 °F -  
Max Temperature 54 °F 37 °F 67 °F (2012)
Min Temperature 31 °F 23 °F 8 °F (2004)
Degree Days  
Heating Degree Days 22    
Month to date heating degree days 929  
Moisture  
Dew Point 29 °F    
Average Humidity 72    
Maximum Humidity 100    
Minimum Humidity 44    
Precipitation  
Precipitation 0.33 in - - ()
Month to date precipitation 2.98  
Year to date precipitation 2.98  
Sea Level Pressure  
Sea Level Pressure 29.54 in    
Wind  
Wind Speed 20 mph (West)    
Max Wind Speed 37 mph    
Max Gust Speed 46 mph    
Visibility 9 miles    
Events Rain , Snow    
Averages and records for this station are not official NWS values.
T = Trace of Precipitation, MM = Missing Value Source: NWS Daily Summary

Daily Weather History Graph

Daily Weather History Graph

Search for Another Location

Airport:

Trip Planner

Search our weather history database for the weather conditions in past years. The results will help you decide how hot, cold, wet, or windy it might be!

Date:

Astronomy

Jan. 31, 2013 Rise Set
Actual Time 7:19 AM EST 5:29 PM EST
Civil Twilight 6:50 AM EST 5:58 PM EST
Nautical Twilight 6:18 AM EST 6:30 PM EST
Astronomical Twilight 5:46 AM EST 7:02 PM EST
Moon 10:28 PM EST (1/31) 9:18 AM EST (1/31)
Length of Visible Light 11h 07m
Length of Day
10h 10m
Waning Gibbous, 80% of the Moon is Illuminated
Jan 31
Waning Gibbous
Feb 3
Last Quarter
Feb 10
New
Feb 17
First Quarter
Feb 25
Full

Hourly Weather History & Observations

Time (EST) Temp. Windchill Dew Point Humidity Pressure Visibility Wind Dir Wind Speed Gust Speed Precip Events Conditions
12:34 AM 53.6 °F - 53.6 °F 100% 29.23 in 2.5 mi West 16.1 mph - 0.15 in Rain Rain
12:51 AM 53.6 °F - 51.8 °F 94% 29.24 in 8.0 mi West 13.8 mph - 0.19 in Rain Light Rain
12:53 AM 53.1 °F - 51.1 °F 93% 29.26 in 7.0 mi West 12.7 mph - 0.20 in Rain Light Rain
1:07 AM 53.6 °F - 51.8 °F 94% 29.21 in 7.0 mi WSW 8.1 mph - 0.02 in Rain Light Rain
1:53 AM 53.1 °F - 52.0 °F 96% 29.24 in 5.0 mi SW 4.6 mph - 0.08 in Rain Light Rain
2:37 AM 53.6 °F - 50.0 °F 88% 29.20 in 6.0 mi West 13.8 mph 21.9 mph 0.05 in Rain Light Rain
2:53 AM 51.1 °F - 48.9 °F 92% 29.23 in 6.0 mi West 12.7 mph 19.6 mph 0.07 in Rain Light Rain
3:04 AM 51.8 °F - 44.6 °F 76% 29.19 in 10.0 mi West 20.7 mph 28.8 mph 0.00 in Rain Light Rain
3:53 AM 46.0 °F 37.0 °F 35.1 °F 66% 29.30 in 10.0 mi WNW 27.6 mph 46.0 mph 0.01 in   Overcast
4:53 AM 44.1 °F 33.7 °F 30.9 °F 60% 29.32 in 10.0 mi West 32.2 mph 46.0 mph N/A   Overcast
5:53 AM 39.0 °F 28.5 °F 27.0 °F 62% 29.43 in 10.0 mi WNW 23.0 mph 39.1 mph N/A   Scattered Clouds
6:53 AM 37.9 °F 29.6 °F 25.0 °F 60% 29.50 in 10.0 mi West 13.8 mph 26.5 mph N/A   Overcast
7:53 AM 37.0 °F 26.7 °F 23.0 °F 57% 29.54 in 10.0 mi West 19.6 mph 32.2 mph N/A   Mostly Cloudy
8:53 AM 37.0 °F 25.4 °F 21.9 °F 54% 29.58 in 10.0 mi West 25.3 mph 34.5 mph N/A   Mostly Cloudy
9:53 AM 39.0 °F 27.4 °F 21.0 °F 49% 29.60 in 10.0 mi West 28.8 mph 38.0 mph N/A   Mostly Cloudy
10:53 AM 37.9 °F 27.1 °F 18.0 °F 45% 29.65 in 10.0 mi West 23.0 mph 36.8 mph N/A   Mostly Cloudy
11:53 AM 37.9 °F 26.6 °F 17.1 °F 43% 29.67 in 10.0 mi West 25.3 mph 38.0 mph N/A   Mostly Cloudy
12:53 PM 36.0 °F 23.9 °F 16.0 °F 44% 29.69 in 10.0 mi West 25.3 mph 38.0 mph N/A   Mostly Cloudy
1:53 PM 34.0 °F 22.4 °F 18.0 °F 52% 29.70 in 9.0 mi West 20.7 mph 34.5 mph 0.00 in Snow Light Snow
2:53 PM 32.0 °F 19.8 °F 21.0 °F 64% 29.75 in 9.0 mi West 20.7 mph 32.2 mph 0.00 in Snow Light Snow
3:53 PM 33.1 °F 23.0 °F 17.1 °F 52% 29.76 in 10.0 mi WSW 15.0 mph 23.0 mph 0.00 in   Overcast
4:53 PM 30.9 °F 17.8 °F 18.0 °F 59% 29.80 in 10.0 mi West 23.0 mph 28.8 mph 0.00 in   Mostly Cloudy
5:53 PM 28.9 °F 15.1 °F 16.0 °F 58% 29.86 in 9.0 mi West 23.0 mph 29.9 mph 0.00 in Snow Light Snow
6:53 PM 28.0 °F 17.0 °F 9.0 °F 45% 29.90 in 10.0 mi West 13.8 mph - N/A   Mostly Cloudy
9:53 PM 28.0 °F 20.8 °F 9.0 °F 45% 29.90 in 10.0 mi SW 6.9 mph - N/A   Clear
10:53 PM 28.0 °F 22.8 °F 10.9 °F 49% 29.92 in 10.0 mi WSW 4.6 mph - N/A   Scattered Clouds
11:53 PM 28.0 °F 22.8 °F 12.0 °F 51% 29.90 in 10.0 mi West 4.6 mph - N/A   Clear